Voltar ao catálogo

STARLINK-32571

AtivoComunicaçõesVLEO
NORAD 62055·PAYLOAD·🇺🇸 United States

Lançado Nov 21, 2024 de Cape Canaveral Space Force Station

Loading…

Próximas Passagens (próximas 24 horas)

TLE

AtualizadoSource: CelesTrak SupGP

Época: Sep 15, 2026, 03:24 UTC

1 62055C 24216Z   26258.14215278 -.00027401  00000+0 -99252-3 0  2589
2 62055  42.9996 265.8647 0000971 274.1327 172.2326 15.27590292    16

Acompanhe STARLINK-32571 em tempo real com AllMySat

Download on the App Store